Location: The Jewett Observatory
(46.7288°N, 117.1525°W)
Time: 16:14:31
(UTC-07:00)

Daily predictions for brighter satellites

Satellite Brightness Start Highest point End
(mag) Time Altitude Azimuth Time Altitude Azimuth Time Altitude Azimuth
Cosmos 2227 Rocket 2.5 20:01:45 10° NNW 20:07:19 53° ENE 20:12:50 10° SE
Helios 1B rocket 3.4 20:08:23 10° N 20:12:27 55° WNW 20:16:28 10° SSW
ALOS 2.3 20:08:37 10° SSE 20:13:18 87° E 20:18:01 10° NNW
NOSS 2-1 (E) 3.6 20:09:46 10° SSW 20:13:35 50° ESE 20:18:02 10° NE
Cosmos 1943 Rocket 3.9 20:09:33 10° WSW 20:14:47 39° NW 20:20:05 10° NNE
Meteor 1-5 Rocket 4.2 20:11:09 10° S 20:16:20 55° E 20:21:40 10° NNE
FENGYUN 3A 3.7 20:11:38 10° SSE 20:16:59 89° E 20:22:23 10° NNW
Cosmos 1777 Rocket 4.2 20:13:10 10° NNW 20:18:26 76° WSW 20:23:40 10° SSE
Cosmos 2082 3.8 20:14:27 10° NNW 20:20:03 61° ENE 20:25:36 10° SE
Cosmos 2297 Rocket 2.5 20:17:38 10° NNW 20:23:10 51° ENE 20:28:39 10° SE
Lacrosse 5 2.8 20:21:03 10° NW 20:25:49 39° NNE 20:30:34 10° E
Cosmos 2123 Rocket 4.0 20:21:29 10° N 20:27:42 75° E 20:33:51 10° SSE
Cosmos 1892 Rocket 3.9 20:24:20 10° NNW 20:28:48 71° W 20:33:15 10° S
Okean 2 3.6 20:25:22 10° NNW 20:29:34 79° W 20:33:43 10° S
H-2A R/B 3.2 20:26:32 10° ESE 20:29:50 25° ENE 20:33:12 10° N
Cosmos 1626 Rocket 4.0 20:26:27 10° N 20:30:43 45° ENE 20:34:55 10° SSE
Cosmos 2208 Rocket 4.1 20:27:26 10° S 20:32:38 58° ESE 20:37:56 10° NNE
BREEZE-M TANK 3.9 20:18:53 10° W 20:35:20 74° SSW 20:38:58 13° ESE
SPOT 5 4.0 20:31:47 11° ESE 20:35:52 29° ENE 20:40:00 10° N
USA 215 4.0 20:30:05 10° E 20:36:17 47° NNE 20:42:28 10° NW
Cosmos 1975 3.4 20:33:47 10° SSE 20:37:34 37° E 20:41:22 10° NNE
Cosmos 1455 Rocket 3.0 20:33:32 10° S 20:37:51 77° E 20:42:13 10° NNE
Cosmos 1602 Rocket 3.8 20:34:19 10° N 20:38:44 54° ENE 20:43:05 10° SSE
Cosmos 1743 4.5 20:41:33 14° ESE 20:42:38 15° E 20:44:58 10° NE
Lacrosse 5 rocket 1.0 20:42:41 10° NW 20:46:28 87° NE 20:49:06 18° SE
Cosmos 1461 2.9 20:42:35 10° NW 20:46:43 73° SW 20:50:13 13° SSE
Tiangong 1 1.8 20:44:17 10° WSW 20:47:10 35° S 20:48:47 20° ESE
YAOGAN 6 4.1 20:46:42 16° ESE 20:48:23 21° ENE 20:51:15 10° NNE
Resurs 01 Rocket 4.4 20:46:13 10° SW 20:49:26 19° W 20:52:40 10° NW
NOSS 3-4 (A) 4.2 20:43:32 10° NW 20:50:25 62° WSW 20:57:41 10° SSE
NOSS 3-4 (C) 4.2 20:43:39 10° NW 20:50:32 63° WSW 20:57:49 10° SSE
CZ-4 DEB 2.6 20:47:41 10° SSE 20:50:49 86° E 20:53:59 10° NNW
Cosmos 1570 Rocket 4.0 20:45:42 10° SSW 20:51:01 87° ESE 20:56:20 10° NNE
NOSS 7 (D) 4.4 20:48:30 10° SSW 20:51:50 53° SE 20:55:11 10° NE
USA 186 3.2 20:49:53 10° SSW 20:52:47 35° W 20:55:32 10° NNW
H-2A R/B 4.0 20:50:54 10° E 20:53:11 13° NE 20:55:28 10° NNE
Cosmos 1066 Rocket 4.5 20:47:46 10° N 20:53:15 51° ENE 20:58:03 14° SSE
EO 1 Delta rocket 4.2 20:49:17 10° N 20:53:53 72° WNW 20:58:53 10° SSW
OTV 4 2.6 20:52:58 10° SW 20:54:39 14° S 20:55:25 13° S
Envisat 3.0 20:51:26 11° SSE 20:56:16 64° ENE 21:01:18 10° N
Cosmos 1937 Rocket 4.1 20:52:50 10° N 20:57:50 42° ENE 21:01:13 19° ESE
Cosmos 1153 Rocket 4.5 20:51:54 10° S 20:58:00 63° E 21:04:05 10° NNE
BREEZE-M DEB (TANK) 1.5 21:01:29 10° WNW 21:03:34 79° NNE 21:05:25 23° ESE
Meteor 1-12 Rocket 4.2 20:57:54 10° S 21:03:37 78° E 21:09:28 10° NNE
Cosmos 2150 Rocket 4.1 20:59:11 10° NNW 21:04:18 60° ENE 21:07:47 20° SE
Cosmos 2278 3.7 21:00:00 10° SSW 21:05:41 86° ESE 21:11:26 10° NNE
Cosmos 1697 Rocket 3.3 21:00:44 10° S 21:05:46 34° ESE 21:10:50 10° NE
DELTA 2 R/B (1) 4.3 21:02:26 10° WSW 21:07:34 38° S 21:10:34 22° SE
Cosmos 2084 3.4 21:03:42 10° NW 21:07:43 64° NE 21:09:58 25° ESE
Cosmos 1939 Rocket 2.9 21:04:26 13° SSE 21:08:03 89° ESE 21:12:15 10° NNW
Cosmos 220 Rocket 3.9 21:05:02 10° NNW 21:09:17 82° WSW 21:12:20 18° SSE
ATLAS CENTAUR R/B 4.1 21:05:11 10° W 21:09:25 27° NW 21:13:31 10° NNE
ASTEX 1 4.1 21:05:48 10° NNE 21:10:21 33° E 21:12:35 23° SE
Cosmos 1802 Rocket 4.5 21:05:46 14° SSE 21:10:53 42° E 21:16:51 10° NNE
SPOT 1/Viking Rocket 4.3 21:08:45 21° ESE 21:11:30 36° ENE 21:16:14 10° N
EP 1 4.0 21:10:43 10° SW 21:13:11 89° S 21:15:57 10° NE
Iridium 4 Rocket 3.5 21:08:27 10° N 21:13:47 79° W 21:18:35 10° S
Cosmos 1606 Rocket 4.5 21:15:19 26° ESE 21:16:18 29° E 21:20:07 10° NNE
Cosmos 2369 3.7 21:12:57 10° SSW 21:18:39 86° WNW 21:24:24 10° NNE
Terra 3.6 21:19:09 16° E 21:20:30 17° ENE 21:23:34 10° NNE
CZ-4B R/B 4.4 21:19:56 10° NE 21:23:49 25° E 21:23:57 25° E
Cosmos 1980 Rocket 2.9 21:25:46 27° SE 21:27:28 32° ESE 21:32:28 10° NE
Cosmos 2016 Rocket 4.2 21:28:04 23° SSE 21:31:41 49° E 21:37:37 10° NNE
Cosmos 1898 Rocket 3.6 21:26:38 10° NNW 21:31:58 79° WSW 21:35:11 24° SSE
ERS-1 Rocket 3.8 21:27:54 10° S 21:32:44 48° W 21:37:36 10° NNW
NOSS 7 (H) 4.3 21:29:34 10° SW 21:32:48 85° NW 21:36:23 10° NE
ARGOS 3.4 21:31:03 30° SE 21:33:26 51° ENE 21:38:39 10° N
RESURS DK-1 2.4 21:29:49 10° NNW 21:33:57 68° ENE 21:35:13 42° SE
Meteor 1-21 4.3 21:30:35 10° N 21:36:19 66° ENE 21:39:14 30° SSE
Cosmos 1666 4.1 21:37:39 24° ENE 21:37:39 24° ENE 21:39:58 10° NNE
SL-24 R/B - RUBIN 2 4.3 21:33:22 10° SSW 21:39:15 70° ESE 21:45:47 10° NE
Cosmos 1726 Rocket 3.9 21:40:21 41° ESE 21:40:52 43° E 21:45:02 10° NNE
BREEZE-M DEB (TANK) 4.0 21:39:23 10° WNW 21:43:12 84° SSW 21:49:31 25° ESE
Cosmos 2173 Rocket 4.0 21:38:28 11° S 21:44:39 82° E 21:51:02 10° N
Cosmos 1763 Rocket 3.9 21:44:50 38° ESE 21:45:15 38° ESE 21:49:57 10° NE
Cosmos 1500 3.9 21:44:14 14° SSW 21:47:22 53° WNW 21:51:06 10° N
SL-19 R/B 4.2 21:44:13 10° NNE 21:49:43 57° ESE 21:51:51 34° SSE
Cosmos 1825 Rocket 3.6 21:46:27 10° NNW 21:50:55 80° W 21:52:32 39° S
Cosmos 2227 Rocket 3.9 21:46:22 10° NW 21:51:02 27° WSW 21:55:41 10° SSW
Cosmos 2061 Rocket 4.0 21:45:33 11° S 21:51:39 90° W 21:57:58 10° N
Cosmos 2100 Rocket 4.1 21:47:17 10° S 21:53:36 80° W 21:59:52 10° N
MetOp-B 4.3 21:51:33 28° S 21:54:27 73° WSW 21:59:50 10° NNW
Cosmos 2263 Rocket 3.6 21:49:57 10° N 21:54:30 25° NE 21:56:22 21° ENE
Tsikada Rocket 4.2 21:48:42 10° N 21:55:04 58° ENE 21:57:24 38° SE
Cosmos 468 Rocket 3.9 21:50:53 10° SSW 21:56:00 86° WNW 22:01:11 10° NNE
USA 245 4.4 21:54:28 31° SSE 21:57:36 90° WSW 22:04:01 10° NNW
Cosmos 2322 Rocket 3.8 22:00:20 19° ENE 22:00:20 19° ENE 22:02:41 10° NE
Cosmos 1953 Rocket 3.5 21:54:47 10° N 21:59:16 88° WSW 22:00:21 51° S
Cosmos 967 Rocket 4.4 21:54:00 10° NW 22:00:25 81° NE 22:02:46 41° SE
Cosmos 405 Rocket 4.3 21:57:15 10° NNE 21:59:40 23° NE 21:59:40 23° NE
Cosmos 1340 2.7 21:57:00 10° NNW 22:00:47 72° W 22:01:17 61° SSW
Cosmos 1814 Rocket 4.0 21:58:00 11° SSW 22:03:10 88° WNW 22:08:32 10° NNE
Cosmos 841 Rocket 3.6 22:04:41 50° ESE 22:05:03 51° ESE 22:10:07 10° NNE
H-2A R/B 3.4 22:03:41 21° SSW 22:05:44 33° W 22:09:29 10° NNW
Cosmos 1656 4.0 22:00:39 10° SW 22:06:13 64° WNW 22:11:46 10° NNE
Cosmos 2297 Rocket 3.8 22:02:11 10° NW 22:06:55 28° WSW 22:10:48 14° SSW
Meteor 2-9 Rocket 4.2 22:06:35 49° SE 22:07:41 58° E 22:13:00 10° NNE
Cosmos 2227 4.1 22:02:35 10° NNW 22:08:23 86° ENE 22:10:03 49° SSE
Lacrosse 5 2.0 22:04:02 10° NW 22:09:03 63° SW 22:09:59 52° S
SPOT 5 4.0 22:11:02 22° SSW 22:13:47 41° W 22:18:25 10° NNW
Cosmos 1743 3.8 22:16:41 30° SW 22:18:06 44° WNW 22:21:54 10° N
Cosmos 1758 Rocket 3.7 22:14:10 10° NNW 22:18:30 65° W 22:19:08 56° SW
USA 215 3.2 22:16:43 44° SE 22:19:02 82° SW 22:25:37 10° NW
YAOGAN 6 4.1 22:21:11 29° WSW 22:21:49 30° W 22:25:08 10° NNW
Tiangong 1 4.0 22:20:31 10° WSW 22:20:46 12° WSW 22:20:46 12° WSW
Cosmos 1816 Rocket 4.5 22:17:22 10° N 22:23:47 74° E 22:25:24 52° SSE
Lacrosse 5 rocket 3.6 22:23:29 10° W 22:24:50 12° WSW 22:24:50 12° WSW
Cosmos 1725 Rocket 3.9 22:26:55 44° S 22:29:05 88° E 22:35:23 10° N
Cosmos 2228 3.3 22:29:55 57° NNE 22:29:55 57° NNE 22:33:25 10° NNE
H-2A R/B 1.8 22:31:30 76° SE 22:31:52 84° ENE 22:36:51 10° NNW
Cosmos 1842 3.9 22:29:55 10° NNW 22:33:31 50° W 22:33:31 50° W
DELTA 2 DEB (DPAF) 4.1 22:34:23 84° NNW 22:34:23 84° NNW 22:38:45 10° NNW
IGS 5A 3.9 22:35:41 54° NNE 22:35:41 54° NNE 22:39:07 10° N
GEOS 3 Rocket 3.4 22:31:14 10° NE 22:36:23 81° SE 22:37:08 65° SSW
Cosmos 372 Rocket 4.2 22:31:57 10° NNW 22:37:00 55° ENE 22:37:03 55° ENE
Cosmos 2098 Rocket 4.2 22:36:06 30° SSW 22:39:46 72° W 22:45:44 10° N
Cosmos 2058 Rocket 3.5 22:40:15 57° WSW 22:40:38 60° WNW 22:45:08 10° N
Landsat 7 3.9 22:42:11 67° WSW 22:42:21 68° WSW 22:47:07 10° NNW
CZ-4 R/B 3.8 22:40:02 10° N 22:44:45 76° WNW 22:44:58 74° WSW
Cosmos 1697 Rocket 3.8 22:44:17 10° SW 22:49:39 42° NW 22:55:01 10° NNE
Cosmos 1707 4.4 22:46:13 10° N 22:48:25 28° NNE 22:48:25 28° NNE
SL-16 R/B 2.7 22:53:37 45° ENE 22:53:37 45° ENE 22:57:53 10° NE
Terra 2.0 22:58:02 66° WNW 22:58:02 66° WNW 23:02:30 10° NNW
Cosmos 2233 Rocket 3.8 22:57:06 69° S 22:57:56 90° W 23:04:14 10° N
Meteor 2-5 Rocket 3.7 22:53:16 10° N 22:59:15 78° ENE 22:59:27 77° ESE
Meteor 2-17 Rocket 4.3 22:59:57 68° SSW 23:00:46 83° W 23:06:52 10° N
CZ-4B R/B 4.4 22:58:12 10° N 23:02:41 42° WNW 23:03:53 35° WSW
CARTOSAT-1 4.4 23:04:51 47° WNW 23:04:51 47° WNW 23:08:21 10° NNW
BREEZE-M DEB (TANK) 3.8 22:57:51 10° WSW 23:03:49 44° WSW 23:03:49 44° WSW
Cosmos 1844 Rocket 4.3 23:03:52 10° N 23:08:14 23° NE 23:09:14 22° ENE
Cosmos 1980 Rocket 3.1 23:07:25 19° WSW 23:11:18 45° NW 23:16:48 10° NNE
Cosmos 2360 Rocket 3.8 23:14:22 22° ENE 23:14:22 22° ENE 23:16:48 10° NE
Spot 4 4.3 23:12:59 59° NW 23:12:59 59° NW 23:17:05 10° NNW
Cosmos 1375 Rocket 4.5 23:20:10 75° E 23:20:10 75° E 23:26:29 10° NE
Cosmos 1125 Rocket 4.4 23:15:16 10° NW 23:19:49 41° W 23:19:49 41° W
BREEZE-M DEB (TANK) 4.2 22:57:54 10° WNW 23:23:09 66° SW 23:24:17 60° S
BREEZE-M DEB (TANK) 3.8 23:09:57 10° WNW 23:23:43 58° SW 23:23:43 58° SW
Meteor 1-24 Rocket 3.9 23:24:15 10° N 23:29:59 78° NNE 23:29:59 78° NNE
Cosmos 1464 Rocket 3.9 23:38:36 84° NE 23:38:36 84° NE 23:44:47 10° N
Cosmos 2263 Rocket 2.6 23:33:23 10° NNW 23:38:03 57° WNW 23:38:03 57° WNW
Cosmos 2322 Rocket 2.5 23:42:06 61° NW 23:42:06 61° NW 23:47:36 10° NNE
